Home > Weather > Safed > Past weeks

Flag for Israel Weather for the Past 2 Weeks in Safed, Israel

Now
52 °F

Passing clouds.


Feels Like: 49 °F
Forecast: 38 / 53 °F
Wind: 7 mph from East

Location: Beirut Airport

Current Time: Feb 8, 2016 at 3:10:25 AM

Latest Report: Feb 8, 2016 at 2:00 AM


Visibility: N/A

Pressure: 30.18 "Hg (27.50 "Hg at 772m altitude)

Humidity: 82%

Dew point: 46 °F

Location of SafedLocation

Historic Weather in Safed — Graph

°F

Safed Temperature Yesterday

Maximum temperature yesterday: 59 °F (at 4:00 PM)
Minimum temperature yesterday: 52 °F (at 12:00 AM)
Average temperature yesterday: 54 °F

High & Low Weather Summary for the Past Weeks

 TemperatureHumidityPressure
High75 °F (Feb 5, 1:00 PM)88% (Feb 6, 6:00 AM)30.48 "Hg (Feb 6, 6:00 AM)
Low39 °F (Jan 28, 7:00 AM)19% (Jan 28, 1:00 PM)29.86 "Hg (Feb 7, 12:00 AM)
Average55 °F58%30.22 "Hg
* Reported Jan 24 1:00 AM — Feb 8 1:00 AM, Safed, Weather by CustomWeather, © 2016

Note: Actual official high and low records may vary slightly from our data, if they occured in-between our weather recording intervals... More about our weather records

Advertising

Safed Weather History for the Previous 24 Hours

 ConditionsComfort  
Time TempWeatherWind HumidityBarometerVisibility
1:00 AM
Mon, Feb 8
54 °FPassing clouds.10 mph77%30.18 "HgN/A
12:00 AM52 °FPassing clouds.9 mph77%30.15 "HgN/A
11:00 PM
Sun, Feb 7
54 °FPassing clouds.13 mph67%30.15 "HgN/A
10:00 PM54 °FPassing clouds.3 mph67%30.12 "HgN/A
9:00 PM54 °FPassing clouds.6 mph63%30.12 "HgN/A
8:00 PM54 °FPassing clouds.6 mph67%30.09 "HgN/A
7:00 PM54 °FPassing clouds.3 mph72%30.09 "HgN/A
6:00 PM55 °FPassing clouds.5 mph63%30.07 "HgN/A
5:00 PM55 °FPartly sunny.10 mph63%30.07 "Hg5 mi
4:00 PM59 °FPartly sunny.3 mph55%30.04 "Hg5 mi
3:00 PM57 °FPartly sunny.8 mph59%30.01 "Hg5 mi
2:00 PM54 °FPartly sunny.10 mph72%30.01 "Hg5 mi
1:00 PM54 °FRain showers. Partly sunny.2 mph77%30.01 "Hg5 mi
12:00 PM57 °FPartly sunny.5 mph67%30.01 "Hg5 mi
11:00 AM55 °FPartly sunny.5 mph67%30.01 "Hg5 mi
10:00 AM54 °FRain. Partly sunny.5 mph72%30.01 "Hg5 mi
9:00 AM52 °FPartly sunny.6 mph77%29.98 "Hg5 mi
8:00 AM52 °FRain. Partly sunny.13 mph82%29.98 "Hg5 mi
7:00 AM52 °FThunderstorms. Partly sunny.7 mph82%29.95 "Hg4 mi
6:00 AM52 °FThunderstorms. Passing clouds.2 mph82%29.92 "Hg4 mi
5:00 AM54 °FPassing clouds.3 mph72%29.92 "Hg5 mi
4:00 AM54 °FPassing clouds.3 mph77%29.92 "Hg5 mi
3:00 AM55 °FPassing clouds.5 mph72%29.89 "Hg5 mi
Weather by CustomWeather, © 2016

See weather overviewHow to use our weather pages